TimeEST,TemperatureF,Dew PointF,Humidity,Sea Level PressureIn,VisibilityMPH,Wind Direction,Wind SpeedMPH,Gust SpeedMPH,PrecipitationIn,Events,Conditions,WindDirDegrees,DateUTC
12:51 AM,30.0,28.0,92,30.32,9.0,NW,4.6,-,N/A,,Clear,310,2012-12-04 05:51:00
1:51 AM,29.1,27.1,92,30.33,10.0,Calm,Calm,-,N/A,,Clear,0,2012-12-04 06:51:00
2:09 AM,30.2,28.4,93,30.32,10.0,Calm,Calm,-,N/A,,Mostly Cloudy,0,2012-12-04 07:09:00
2:51 AM,31.1,29.1,92,30.32,10.0,Calm,Calm,-,N/A,,Mostly Cloudy,0,2012-12-04 07:51:00
3:36 AM,32.0,30.2,93,30.31,10.0,Calm,Calm,-,N/A,,Overcast,0,2012-12-04 08:36:00
3:51 AM,32.0,30.0,92,30.32,10.0,Calm,Calm,-,N/A,,Overcast,0,2012-12-04 08:51:00
4:27 AM,33.8,30.2,87,30.31,10.0,Calm,Calm,-,N/A,,Overcast,0,2012-12-04 09:27:00
4:51 AM,32.9,31.1,93,30.32,10.0,Calm,Calm,-,N/A,,Overcast,0,2012-12-04 09:51:00
5:10 AM,33.8,30.2,87,30.31,10.0,Calm,Calm,-,N/A,,Overcast,0,2012-12-04 10:10:00
5:51 AM,34.0,32.0,92,30.33,10.0,Calm,Calm,-,N/A,,Overcast,0,2012-12-04 10:51:00
6:51 AM,34.9,32.9,92,30.34,5.0,Calm,Calm,-,N/A,,Overcast,0,2012-12-04 11:51:00
7:00 AM,35.6,33.8,93,30.32,2.0,Calm,Calm,-,N/A,,Mostly Cloudy,0,2012-12-04 12:00:00
7:20 AM,33.8,33.8,100,30.32,-9999.0,Calm,Calm,-,N/A,,Mostly Cloudy,0,2012-12-04 12:20:00
7:27 AM,33.8,33.8,100,30.32,0.2,Calm,Calm,-,N/A,Fog,Fog,0,2012-12-04 12:27:00
7:39 AM,33.8,33.8,100,30.32,0.2,Calm,Calm,-,N/A,Fog,Fog,0,2012-12-04 12:39:00
7:51 AM,34.9,32.9,92,30.34,0.2,Calm,Calm,-,N/A,Fog,Fog,0,2012-12-04 12:51:00
8:17 AM,35.6,33.8,93,30.31,0.2,Calm,Calm,-,0.00,Fog,Fog,0,2012-12-04 13:17:00
8:28 AM,35.6,33.8,93,30.31,0.2,Calm,Calm,-,0.00,Fog,Fog,0,2012-12-04 13:28:00
8:51 AM,36.0,34.9,96,30.33,0.2,Calm,Calm,-,0.00,Fog,Fog,0,2012-12-04 13:51:00
9:29 AM,35.6,35.6,100,30.32,0.2,Calm,Calm,-,N/A,Fog,Fog,0,2012-12-04 14:29:00
9:51 AM,36.0,34.9,96,30.33,0.2,Calm,Calm,-,N/A,Fog,Fog,0,2012-12-04 14:51:00
10:04 AM,35.6,35.6,100,30.31,0.5,Calm,Calm,-,N/A,Fog,Fog,0,2012-12-04 15:04:00
10:44 AM,37.4,35.6,93,30.29,0.8,Calm,Calm,-,N/A,,Mist,0,2012-12-04 15:44:00
10:51 AM,36.9,36.0,97,30.30,0.8,Calm,Calm,-,N/A,,Mist,0,2012-12-04 15:51:00
10:59 AM,37.4,35.6,93,30.28,1.2,Calm,Calm,-,N/A,,Mostly Cloudy,0,2012-12-04 15:59:00
11:17 AM,37.4,35.6,93,30.26,1.5,Calm,Calm,-,N/A,,Mostly Cloudy,0,2012-12-04 16:17:00
11:33 AM,37.4,37.4,100,30.25,1.2,Calm,Calm,-,N/A,,Mostly Cloudy,0,2012-12-04 16:33:00
11:51 AM,37.9,36.9,96,30.27,1.5,Calm,Calm,-,N/A,,Mostly Cloudy,0,2012-12-04 16:51:00
12:12 PM,39.2,37.4,93,30.24,2.0,Calm,Calm,-,N/A,,Clear,0,2012-12-04 17:12:00
12:20 PM,39.2,37.4,93,30.24,2.5,Calm,Calm,-,N/A,,Partly Cloudy,0,2012-12-04 17:20:00
12:51 PM,39.9,37.9,93,30.24,3.0,Calm,Calm,-,N/A,,Overcast,0,2012-12-04 17:51:00
1:04 PM,39.2,39.2,100,30.21,2.5,Calm,Calm,-,N/A,,Overcast,0,2012-12-04 18:04:00
1:51 PM,41.0,39.9,96,30.21,2.5,Calm,Calm,-,N/A,,Overcast,0,2012-12-04 18:51:00
2:51 PM,43.0,41.0,93,30.19,2.5,Calm,Calm,-,N/A,,Overcast,0,2012-12-04 19:51:00
3:51 PM,43.9,41.0,90,30.17,2.5,Calm,Calm,-,N/A,,Overcast,0,2012-12-04 20:51:00
4:25 PM,44.6,42.8,93,30.14,2.5,Calm,Calm,-,N/A,,Overcast,0,2012-12-04 21:25:00
4:51 PM,43.0,41.0,93,30.16,4.0,NW,4.6,-,N/A,,Overcast,320,2012-12-04 21:51:00
6:51 PM,43.9,41.9,93,30.11,3.0,Calm,Calm,-,N/A,,Overcast,0,2012-12-04 23:51:00
7:51 PM,54.0,50.9,89,30.07,4.0,Variable,5.8,-,N/A,,Overcast,0,2012-12-05 00:51:00
7:58 PM,53.6,51.8,94,30.05,6.0,Variable,5.8,-,N/A,,Overcast,0,2012-12-05 00:58:00
8:51 PM,55.9,52.0,87,30.04,10.0,Variable,5.8,-,N/A,,Overcast,0,2012-12-05 01:51:00
9:51 PM,56.8,52.0,84,30.01,10.0,Variable,6.9,-,N/A,,Overcast,0,2012-12-05 02:51:00
10:09 PM,57.2,51.8,82,30.00,10.0,Variable,5.8,-,N/A,,Overcast,0,2012-12-05 03:09:00
10:51 PM,56.8,52.9,87,29.99,10.0,Variable,4.6,-,N/A,,Overcast,0,2012-12-05 03:51:00
11:51 PM,56.8,52.9,87,29.95,10.0,Variable,6.9,-,N/A,,Overcast,0,2012-12-05 04:51:00